Location: Daerah Kuala Lumpur
(3.1167°N, 101.6833°E)
Time: 08:23:30
(UTC+00:00)

CZ-4C R/B - Pass Details

Date: 17 November 2024
Orbit: 515 x 1473 km, 63.4° (Epoch: 09 December)

Event Time Altitude Azimuth Distance (km) Brightness Sun altitude
Rises 13:26:42 0° 317° (NW) 4,444 6.2 -35.9°
Reaches altitude 10° 13:29:54 10° 308° (NW) 3,537 5.7 -36.7°
Maximum altitude 13:37:42 34° 248° (WSW) 2,241 4.7 -38.5°
Drops below altitude 10° 13:45:30 10° 187° (S) 3,512 5.6 -40.3°
Sets 13:48:42 0° 178° (S) 4,407 6.1 -41.0°
